Tracking 28790 objects as of 19-Apr-2024
HD Live streaming from Space Station
objects crossing your sky now

INTELSAT 502

Track INTELSAT 502 now!
INTELSAT 502 is classified as:


NORAD ID: 12089
Int'l Code: 1980-098A
Perigee: 36,140.7 km
Apogee: 36,230.5 km
Inclination: 12.4 °
Period: 1,456.2 minutes
Semi major axis: 42556 km
RCS: 13.5237 m2 (large)
Launch date: December 6, 1980
Source: International Telecommunications Satellite Organization (ITSO)
Launch site: AIR FORCE EASTERN TEST RANGE (AFETR)
Your satellite tracking list
Your tracking list is empty




NASA's NSSDC Master Catalog

Two Line Element Set (TLE):
1 12089U 80098A   24109.86727918 -.00000138  00000-0  00000-0 0  9992
2 12089  12.3994 332.1771 0010552 315.4198 340.5481  0.98890080125913
Source of the keplerian elements: AFSPC